Allentown, PA

3:57 PM EDT on April 30, 2017 (GMT -0400)
Allentown

Weather History for KXLL - October, 2011

Change the Weather History Date:

Wednesday, October 19, 2011

  Actual Average (KABE) Record (KABE)
Temperature  
Mean Temperature 58 °F -  
Max Temperature 60 °F 59 °F 84 °F (2016)
Min Temperature 55 °F 40 °F 24 °F (1974)
Degree Days  
Heating Degree Days 8    
Growing Degree Days 8 (Base 50)    
Moisture  
Dew Point 54 °F    
Average Humidity 84    
Maximum Humidity 94    
Minimum Humidity 63    
Precipitation  
Precipitation 0.61 in - - ()
Sea Level Pressure  
Sea Level Pressure 29.67 in    
Wind  
Wind Speed 7 mph (NE)    
Max Wind Speed 22 mph    
Max Gust Speed 31 mph    
Visibility 7 miles    
Events Rain    
Averages and records for this station are not official NWS values.
T = Trace of Precipitation, MM = Missing Value Source: NWS Daily Summary

Daily Weather History Graph

Daily Weather History Graph

Search for Another Location

Airport or City:

Trip Planner

Search our weather history database for the weather conditions in past years. The results will help you decide how hot, cold, wet, or windy it might be!

Date:

Astronomy

Oct. 19, 2011 Rise Set
Actual Time 7:17 AM EDT 6:16 PM EDT
Civil Twilight 6:49 AM EDT 6:43 PM EDT
Nautical Twilight 6:17 AM EDT 7:15 PM EDT
Astronomical Twilight 5:45 AM EDT 7:47 PM EDT
Moon 11:58 PM EDT (10/19) 1:47 PM EDT (10/19)
Length of Visible Light 11h 54m
Length of Day
10h 59m
Waning Gibbous, 55% of the Moon is Illuminated
Oct 19
Waning Gibbous
Oct 19
Last Quarter
Oct 26
New
Nov 2
First Quarter
Nov 10
Full

Hourly Weather History & Observations

Time (EDT) Temp. Dew Point Humidity Pressure Visibility Wind Dir Wind Speed Gust Speed Precip Events Conditions
12:15 AM 55.4 °F 42.8 °F 63% 29.87 in 10.0 mi Calm Calm - N/A   Scattered Clouds
12:35 AM 55.4 °F 44.6 °F 67% 29.85 in 10.0 mi North 5.8 mph - N/A   Scattered Clouds
12:55 AM 57.2 °F 46.4 °F 67% 29.84 in 10.0 mi NE 6.9 mph - N/A   Mostly Cloudy
1:35 AM 55.4 °F 44.6 °F 67% 29.82 in 10.0 mi NNE 4.6 mph - N/A   Mostly Cloudy
1:55 AM 55.4 °F 44.6 °F 67% 29.82 in 10.0 mi NNE 4.6 mph - N/A   Overcast
2:15 AM 55.4 °F 46.4 °F 72% 29.82 in 10.0 mi NNE 3.5 mph - N/A   Overcast
2:35 AM 57.2 °F 50.0 °F 77% 29.81 in 10.0 mi NE 6.9 mph - N/A   Overcast
3:15 AM 57.2 °F 51.8 °F 82% 29.78 in 10.0 mi NE 8.1 mph - N/A   Overcast
3:35 AM 57.2 °F 51.8 °F 82% 29.80 in 10.0 mi NNE 5.8 mph - N/A   Overcast
3:55 AM 57.2 °F 51.8 °F 82% 29.80 in 10.0 mi NNE 5.8 mph - N/A   Light Drizzle
4:15 AM 57.2 °F 53.6 °F 88% 29.79 in 7.0 mi NNE 4.6 mph - N/A Rain Light Rain
4:35 AM 57.2 °F 53.6 °F 88% 29.78 in 7.0 mi NE 4.6 mph - N/A Rain Light Rain
4:55 AM 57.2 °F 53.6 °F 88% 29.77 in 5.0 mi NNE 6.9 mph - 0.01 in Rain Light Rain
5:15 AM 57.2 °F 53.6 °F 88% 29.77 in 4.0 mi NNE 4.6 mph - 0.03 in Rain Rain
5:35 AM 55.4 °F 53.6 °F 94% 29.76 in 4.0 mi North 8.1 mph - 0.06 in Rain Heavy Rain
5:55 AM 55.4 °F 53.6 °F 94% 29.76 in 4.0 mi SE 3.5 mph - 0.09 in Rain Rain
6:15 AM 57.2 °F 55.4 °F 94% 29.76 in 5.0 mi East 8.1 mph - 0.08 in Rain Rain
6:55 AM 59.0 °F 55.4 °F 88% 29.77 in 7.0 mi East 4.6 mph - 0.20 in Rain Heavy Rain
7:15 AM 57.2 °F 53.6 °F 88% 29.76 in 2.5 mi ENE 5.8 mph - 0.06 in Rain Rain
7:35 AM 59.0 °F 55.4 °F 88% 29.73 in 7.0 mi East 8.1 mph 16.1 mph 0.12 in Rain Rain
7:55 AM 59.0 °F 55.4 °F 88% 29.72 in 10.0 mi East 9.2 mph - 0.14 in Rain Rain
8:35 AM 59.0 °F 55.4 °F 88% 29.73 in 7.0 mi ENE 9.2 mph - 0.06 in Rain Rain
8:55 AM 59.0 °F 55.4 °F 88% 29.74 in 4.0 mi Calm Calm - 0.08 in Rain Light Rain
9:15 AM 59.0 °F 55.4 °F 88% 29.73 in 4.0 mi North 4.6 mph - 0.01 in Rain Light Rain
9:35 AM 59.0 °F 55.4 °F 88% 29.73 in 4.0 mi NE 8.1 mph - 0.02 in Rain Light Rain
9:55 AM 57.2 °F 55.4 °F 94% 29.72 in 4.0 mi NE 6.9 mph - 0.02 in Rain Light Rain
10:15 AM 57.2 °F 55.4 °F 94% 29.71 in 5.0 mi NNE 4.6 mph - N/A Rain Light Rain
10:35 AM 59.0 °F 55.4 °F 88% 29.71 in 5.0 mi NNE 5.8 mph - 0.01 in Rain Light Rain
10:55 AM 59.0 °F 55.4 °F 88% 29.70 in 5.0 mi NE 8.1 mph - 0.02 in Rain Light Rain
11:15 AM 59.0 °F 55.4 °F 88% 29.68 in 7.0 mi NNE 10.4 mph 16.1 mph N/A Rain Light Rain
11:35 AM 59.0 °F 55.4 °F 88% 29.67 in 5.0 mi NE 11.5 mph 17.3 mph 0.01 in Rain Light Rain
11:55 AM 59.0 °F 55.4 °F 88% 29.65 in 5.0 mi NE 12.7 mph 18.4 mph 0.02 in Rain Light Rain
12:15 PM 59.0 °F 55.4 °F 88% 29.64 in 4.0 mi NE 13.8 mph 19.6 mph 0.01 in Rain Rain
12:55 PM 59.0 °F 55.4 °F 88% 29.60 in 7.0 mi NE 13.8 mph 18.4 mph 0.01 in Rain Rain
1:15 PM 59.0 °F 55.4 °F 88% 29.59 in 7.0 mi NE 10.4 mph - N/A   Overcast
1:35 PM 60.8 °F 57.2 °F 88% 29.58 in 10.0 mi ENE 11.5 mph 17.3 mph N/A   Overcast
1:55 PM 60.8 °F 55.4 °F 82% 29.57 in 7.0 mi ENE 21.9 mph 31.1 mph N/A   Overcast
2:15 PM 60.8 °F 55.4 °F 82% 29.55 in 10.0 mi ENE 15.0 mph 26.5 mph N/A   Overcast
2:35 PM 60.8 °F 55.4 °F 82% 29.54 in 10.0 mi ENE 15.0 mph 24.2 mph N/A   Overcast
2:55 PM 60.8 °F 55.4 °F 82% 29.53 in 10.0 mi East 21.9 mph 27.6 mph N/A   Overcast
3:15 PM 60.8 °F 55.4 °F 82% 29.53 in 10.0 mi ENE 21.9 mph 27.6 mph N/A   Light Drizzle
3:55 PM 60.8 °F 55.4 °F 82% 29.52 in 10.0 mi East 18.4 mph 25.3 mph N/A   Overcast
4:15 PM 60.8 °F 55.4 °F 82% 29.51 in 10.0 mi ENE 18.4 mph 25.3 mph N/A   Overcast
4:35 PM 60.8 °F 55.4 °F 82% 29.51 in 7.0 mi East 13.8 mph 21.9 mph N/A   Overcast
4:55 PM 60.8 °F 55.4 °F 82% 29.50 in 10.0 mi East 13.8 mph 21.9 mph N/A   Overcast
5:15 PM 60.8 °F 55.4 °F 82% 29.50 in 7.0 mi East 15.0 mph 20.7 mph N/A   Overcast
5:35 PM 60.8 °F 55.4 °F 82% 29.49 in 10.0 mi ENE 11.5 mph 17.3 mph N/A   Overcast
5:55 PM 60.8 °F 55.4 °F 82% 29.48 in 7.0 mi ENE 12.7 mph 18.4 mph N/A Rain Light Rain
6:15 PM 60.8 °F 55.4 °F 82% 29.48 in 7.0 mi ENE 12.7 mph 20.7 mph N/A   Overcast
6:35 PM 60.8 °F 55.4 °F 82% 29.48 in 4.0 mi East 12.7 mph 18.4 mph N/A Rain Light Rain
6:55 PM 59.0 °F 55.4 °F 88% 29.47 in 3.0 mi ENE 13.8 mph 20.7 mph 0.01 in Rain Light Rain
7:15 PM 59.0 °F 55.4 °F 88% 29.46 in 4.0 mi East 13.8 mph 21.9 mph N/A Rain Light Rain
7:35 PM 59.0 °F 55.4 °F 88% 29.45 in 3.0 mi East 15.0 mph 19.6 mph 0.01 in Rain Light Rain
7:55 PM 59.0 °F 57.2 °F 94% 29.43 in 3.0 mi East 12.7 mph 17.3 mph 0.01 in Rain Rain
8:15 PM 59.0 °F 57.2 °F 94% 29.42 in 4.0 mi East 11.5 mph - 0.01 in Rain Light Rain
8:35 PM 59.0 °F 57.2 °F 94% 29.42 in 3.0 mi East 15.0 mph 19.6 mph 0.04 in Rain Light Rain
8:55 PM 59.0 °F 57.2 °F 94% 29.41 in 4.0 mi East 15.0 mph 21.9 mph 0.06 in Rain Light Rain
9:15 PM 59.0 °F 57.2 °F 94% 29.39 in 4.0 mi ENE 15.0 mph 19.6 mph N/A Rain Light Rain
9:35 PM 60.8 °F 57.2 °F 88% 29.39 in 4.0 mi East 11.5 mph 19.6 mph 0.01 in Rain , Thunderstorm Light Thunderstorms and Rain
9:55 PM 60.8 °F 57.2 °F 88% 29.38 in 3.0 mi ENE 16.1 mph - 0.04 in Rain Rain
10:15 PM 60.8 °F 57.2 °F 88% 29.36 in 4.0 mi ENE 16.1 mph - 0.03 in Rain Rain
10:35 PM 60.8 °F 59.0 °F 94% 29.35 in 3.0 mi East 13.8 mph 17.3 mph 0.05 in Rain Light Rain
10:55 PM 60.8 °F 59.0 °F 94% 29.33 in 3.0 mi East 18.4 mph 24.2 mph 0.06 in Rain Light Rain
11:15 PM 60.8 °F 59.0 °F 94% 29.33 in 4.0 mi East 16.1 mph 25.3 mph N/A Rain Light Rain
11:35 PM 60.8 °F 59.0 °F 94% 29.32 in 3.0 mi East 16.1 mph - 0.01 in Rain Light Rain
11:55 PM 60.8 °F 59.0 °F 94% 29.33 in 4.0 mi East 16.1 mph 23.0 mph 0.02 in Rain Light Rain